DW7680 Weather Reports


Display with metric or nautical units.
time (UTC)temp
F
wind
direction
speed
MPH
gust
MPH
rain 1hr
in
rain 24hr
in
rain mn
in
humidity
%
barometer
mb
20260906140003 60 300 4.0 8.0 0.00 0.01 0.00 80 1013.2
20260906134559 58 267 4.0 7.0 0.00 0.01 0.00 82 1013.0
20260906133107 57 269 4.0 8.0 0.00 0.01 0.00 83 1013.1
20260906131605 57 265 4.0 8.0 0.00 0.01 0.00 84 1013.0
20260906130059 57 282 4.0 8.0 0.00 0.01 0.00 84 1012.9
20260906124602 57 269 4.0 8.0 0.00 0.01 0.00 84 1012.7
20260906123104 57 260 4.0 9.0 0.00 0.01 0.00 84 1012.6
20260906121600 57 244 4.0 9.0 0.00 0.01 0.00 84 1012.6
20260906120117 57 271 4.0 9.0 0.00 0.01 0.00 84 1012.6
20260906114558 57 300 3.0 8.0 0.00 0.01 0.00 84 1012.6
20260906113059 57 250 4.0 9.0 0.00 0.01 0.00 84 1012.5
20260906111558 57 269 4.0 7.0 0.00 0.01 0.00 84 1012.4
20260906110100 57 293 4.0 8.0 0.00 0.01 0.00 83 1012.4
20260906104558 57 245 4.0 8.0 0.00 0.01 0.00 83 1012.4
20260906103059 57 296 2.0 7.0 0.00 0.01 0.00 83 1012.3
20260906101558 58 263 3.0 8.0 0.00 0.01 0.00 83 1012.3
20260906100057 58 263 3.0 5.0 0.00 0.01 0.00 83 1012.4
20260906094559 58 285 3.0 6.0 0.00 0.01 0.00 82 1012.4
20260906093116 58 292 3.0 6.0 0.00 0.01 0.00 83 1012.4
20260906091559 58 299 3.0 7.0 0.00 0.01 0.00 83 1012.5
20260906090117 58 252 3.0 6.0 0.00 0.01 0.00 83 1012.4
20260906084558 58 260 4.0 7.0 0.00 0.01 0.00 83 1012.5
20260906083058 58 277 3.0 7.0 0.00 0.01 0.00 83 1012.6
20260906081600 58 277 4.0 10.0 0.00 0.01 0.00 83 1012.7
20260906080100 59 236 3.0 5.0 0.00 0.01 0.00 83 1012.8
20260906074600 59 300 1.0 5.0 0.00 0.01 0.00 82 1012.9
20260906073100 60 265 3.0 6.0 0.00 0.01 0.00 82 1012.9
20260906071609 60 296 2.0 4.0 0.00 0.01 0.00 82 1012.9
20260906070059 61 263 4.0 7.0 0.00 0.01 0.00 80 1013.0
20260906070001 61 263 4.0 7.0 0.00 0.01 0.00 80 1013.0
20260906064600 61 311 1.0 3.0 0.00 0.01 0.00 79 1013.1
20260906063103 62 304 2.0 6.0 0.00 0.01 0.00 78 1013.2
20260906061600 62 279 3.0 5.0 0.00 0.01 0.00 79 1013.1
20260906060101 62 284 1.0 3.0 0.00 0.01 0.00 79 1013.0
20260906054601 62 284 1.0 5.0 0.00 0.01 0.01 78 1013.1
20260906053059 62 269 2.0 4.0 0.00 0.01 0.01 77 1013.2
20260906051559 62 269 0.0 6.0 0.00 0.01 0.01 77 1013.2
20260906050131 62 279 3.0 8.0 0.00 0.01 0.01 77 1013.0
20260906044600 62 242 3.0 7.0 0.00 0.01 0.01 77 1013.0
20260906043109 62 270 3.0 8.0 0.00 0.01 0.01 77 1012.9
20260906041601 63 299 2.0 7.0 0.00 0.01 0.01 77 1013.0
20260906040100 63 249 4.0 8.0 0.00 0.01 0.01 77 1012.8
20260906040004 63 258 4.0 8.0 0.00 0.01 0.01 77 1012.8
20260906034501 63 299 3.0 7.0 0.00 0.01 0.01 78 1012.7
20260906033001 63 295 2.0 8.0 0.00 0.01 0.01 78 1012.5
20260906031501 63 267 3.0 8.0 0.00 0.01 0.01 78 1012.2
20260906030002 63 229 4.0 8.0 0.00 0.01 0.01 80 1011.9
20260906024603 63 260 3.0 7.0 0.00 0.02 0.01 80 1011.9
20260906023121 63 254 1.0 6.0 0.00 0.02 0.01 81 1011.8
20260906023000 63 254 1.0 8.0 0.00 0.02 0.01 81 1011.8
20260906021613 64 296 3.0 4.0 0.00 0.02 0.01 80 1011.3
20260906020001 65 296 0.0 4.0 0.00 0.02 0.01 78 1011.2
20260906014616 66 270 2.0 6.0 0.00 0.02 0.01 76 1011.1
20260906013101 67 278 2.0 7.0 0.00 0.02 0.01 74 1010.9
20260906011606 67 239 3.0 5.0 0.00 0.02 0.01 74 1010.8
20260906010100 67 277 1.0 3.0 0.00 0.02 0.01 74 1010.8
20260906010002 67 277 1.0 5.0 0.00 0.02 0.01 74 1010.8
20260906004601 68 260 3.0 4.0 0.00 0.02 0.01 74 1010.7
20260906003108 68 260 2.0 6.0 0.00 0.02 0.01 72 1010.8
20260906001600 69 278 2.0 7.0 0.00 0.02 0.01 70 1011.0
20260906000101 69 300 2.0 7.0 0.00 0.02 0.01 68 1011.3
20260906000003 69 327 1.0 7.0 0.00 0.02 0.01 68 1011.3
20260905234614 69 287 3.0 8.0 0.00 0.02 0.01 68 1011.1
20260905233059 69 252 3.0 11.0 0.00 0.02 0.01 66 1011.1
20260905231600 69 209 5.0 11.0 0.00 0.02 0.01 69 1011.0
20260905230001 71 153 3.0 5.0 0.00 0.02 0.01 63 1010.9
20260905224609 72 123 2.0 8.0 0.00 0.02 0.01 63 1010.8
20260905223059 71 140 5.0 10.0 0.00 0.02 0.01 63 1010.9
20260905221601 71 129 6.0 11.0 0.00 0.02 0.01 66 1010.9
20260905220100 72 96 2.0 4.0 0.00 0.02 0.01 63 1010.8
20260905220002 72 88 1.0 4.0 0.00 0.02 0.01 62 1010.8
20260905214609 72 92 3.0 8.0 0.00 0.02 0.01 65 1011.2
20260905213109 72 245 0.0 3.0 0.00 0.02 0.01 62 1011.6
20260905211602 71 292 2.0 9.0 0.00 0.02 0.01 66 1011.7
20260905210100 70 302 2.0 7.0 0.00 0.02 0.01 69 1011.9
20260905210004 70 302 3.0 6.0 0.00 0.02 0.01 68 1011.9
20260905204559 69 287 2.0 8.0 0.00 0.02 0.01 71 1012.2
20260905203102 68 244 6.0 11.0 0.00 0.02 0.01 71 1012.2
20260905201606 67 249 6.0 10.0 0.00 0.02 0.01 73 1012.1
20260905200001 67 240 3.0 7.0 0.00 0.02 0.01 77 1012.1
20260905194601 66 256 3.0 9.0 0.00 0.02 0.01 80 1012.4
20260905193100 66 279 3.0 6.0 0.00 0.02 0.01 77 1012.6
20260905191613 66 260 5.0 10.0 0.00 0.02 0.01 77 1012.9
20260905190100 64 299 5.0 11.0 0.00 0.02 0.01 78 1013.1
20260905190005 64 265 4.0 11.0 0.00 0.02 0.01 77 1013.1
20260905184610 62 262 4.0 8.0 0.01 0.09 0.01 81 1013.6
20260905183102 61 274 5.0 8.0 0.01 0.09 0.01 80 1013.3
20260905181559 61 300 2.0 9.0 0.01 0.09 0.01 79 1013.3
20260905180100 60 294 5.0 10.0 0.01 0.09 0.01 78 1013.2
20260905180003 60 320 5.0 10.0 0.01 0.09 0.01 79 1013.2
20260905174606 62 280 7.0 11.0 0.00 0.08 0.00 76 1013.4
20260905173110 68 245 13.0 30.0 0.00 0.08 0.00 59 1013.6
20260905171559 77 88 4.0 14.0 0.00 0.08 0.00 50 1012.6
20260905170059 77 15 4.0 11.0 0.00 0.08 0.00 51 1012.4
20260905170001 77 44 4.0 11.0 0.00 0.08 0.00 51 1012.4
20260905164600 77 91 7.0 12.0 0.00 0.08 0.00 50 1012.6
20260905163106 77 145 3.0 7.0 0.00 0.08 0.00 52 1012.4
20260905161600 76 272 1.0 4.0 0.00 0.08 0.00 54 1012.7
20260905160100 75 112 2.0 6.0 0.00 0.08 0.00 55 1012.6
20260905160002 75 165 1.0 5.0 0.00 0.08 0.00 54 1012.6
20260905154559 75 129 1.0 4.0 0.00 0.08 0.00 56 1012.8
20260905153102 73 138 1.0 3.0 0.00 0.08 0.00 61 1013.0
20260905151559 70 288 0.0 3.0 0.00 0.08 0.00 69 1013.0
20260905150101 68 288 1.0 5.0 0.00 0.08 0.00 72 1013.2
20260905150002 67 236 1.0 5.0 0.00 0.08 0.00 72 1013.2
20260905144559 65 257 2.0 6.0 0.00 0.08 0.00 74 1013.2
20260905143100 63 291 2.0 4.0 0.00 0.08 0.00 77 1013.3
20260905141613 61 283 1.0 5.0 0.00 0.08 0.00 80 1013.3